| time (UTC) | temp C | wind direction | speed KPH | gust KPH | rain 1hr cm | rain 24hr cm | rain mn cm | humidity % | barometer mb |
| 20260510225815 | 16 | 332 | 3.2 | 11.3 | 0.00 | 0.05 | 0.05 | 35 | 1010.0 |
| 20260510225314 | 16 | 303 | 3.2 | 14.5 | 0.00 | 0.05 | 0.05 | 34 | 1010.0 |
| 20260510224824 | 16 | 341 | 6.4 | 12.9 | 0.00 | 0.05 | 0.05 | 34 | 1010.0 |
| 20260510224315 | 16 | 192 | 6.4 | 16.1 | 0.00 | 0.05 | 0.05 | 33 | 1009.8 |
| 20260510223850 | 16 | 319 | 6.4 | 16.1 | 0.00 | 0.05 | 0.05 | 32 | 1009.8 |
| 20260510223337 | 16 | 202 | 4.8 | 14.5 | 0.00 | 0.05 | 0.05 | 33 | 1009.8 |
| 20260510222818 | 17 | 324 | 8.0 | 14.5 | 0.00 | 0.05 | 0.05 | 33 | 1009.6 |
| 20260510222357 | 17 | 360 | 4.8 | 14.5 | 0.00 | 0.05 | 0.05 | 35 | 1009.6 |
| 20260510221835 | 17 | 317 | 4.8 | 14.5 | 0.00 | 0.05 | 0.05 | 35 | 1009.6 |
| 20260510221330 | 17 | 57 | 3.2 | 14.5 | 0.00 | 0.05 | 0.05 | 37 | 1009.4 |
| 20260510220828 | 17 | 10 | 3.2 | 12.9 | 0.00 | 0.05 | 0.05 | 36 | 1009.4 |
| 20260510220322 | 17 | 144 | 4.8 | 16.1 | 0.00 | 0.05 | 0.05 | 37 | 1009.4 |
| 20260510215827 | 17 | 102 | 4.8 | 16.1 | 0.00 | 0.05 | 0.05 | 38 | 1009.1 |
| 20260510215331 | 18 | 321 | 8.0 | 16.1 | 0.00 | 0.05 | 0.05 | 35 | 1009.1 |
| 20260510214816 | 18 | 338 | 6.4 | 16.1 | 0.00 | 0.05 | 0.05 | 36 | 1009.1 |
| 20260510214324 | 18 | 14 | 6.4 | 14.5 | 0.00 | 0.05 | 0.05 | 36 | 1008.8 |
| 20260510213829 | 18 | 334 | 4.8 | 17.7 | 0.00 | 0.05 | 0.05 | 40 | 1008.8 |
| 20260510213342 | 18 | 233 | 3.2 | 17.7 | 0.00 | 0.05 | 0.05 | 39 | 1008.8 |
| 20260510212827 | 18 | 338 | 8.0 | 17.7 | 0.00 | 0.05 | 0.05 | 37 | 1008.7 |
| 20260510212353 | 18 | 320 | 4.8 | 17.7 | 0.00 | 0.05 | 0.05 | 39 | 1008.7 |
| 20260510211839 | 18 | 9 | 9.7 | 17.7 | 0.00 | 0.05 | 0.05 | 36 | 1008.7 |
| 20260510211314 | 18 | 325 | 6.4 | 19.3 | 0.00 | 0.05 | 0.05 | 40 | 1008.4 |
| 20260510210821 | 18 | 304 | 8.0 | 17.7 | 0.00 | 0.05 | 0.05 | 38 | 1008.4 |
| 20260510210334 | 18 | 223 | 6.4 | 14.5 | 0.00 | 0.05 | 0.05 | 39 | 1008.4 |
| 20260510205814 | 18 | 232 | 6.4 | 12.9 | 0.00 | 0.05 | 0.05 | 37 | 1008.1 |
| 20260510205330 | 19 | 163 | 6.4 | 12.9 | 0.00 | 0.05 | 0.05 | 36 | 1008.1 |
| 20260510204842 | 19 | 321 | 3.2 | 29.0 | 0.00 | 0.05 | 0.05 | 39 | 1008.1 |
| 20260510204333 | 19 | 338 | 4.8 | 29.0 | 0.00 | 0.05 | 0.05 | 41 | 1008.1 |
| 20260510203832 | 19 | 355 | 6.4 | 17.7 | 0.00 | 0.05 | 0.05 | 43 | 1008.1 |
| 20260510203328 | 19 | 9 | 6.4 | 17.7 | 0.00 | 0.05 | 0.05 | 43 | 1008.1 |
| 20260510202854 | 19 | 278 | 8.0 | 14.5 | 0.00 | 0.05 | 0.05 | 46 | 1008.0 |
| 20260510202317 | 19 | 38 | 4.8 | 12.9 | 0.00 | 0.05 | 0.05 | 48 | 1008.0 |
| 20260510201842 | 19 | 225 | 4.8 | 14.5 | 0.00 | 0.05 | 0.05 | 48 | 1008.0 |
| 20260510201330 | 18 | 323 | 4.8 | 14.5 | 0.00 | 0.05 | 0.05 | 45 | 1007.9 |
| 20260510200901 | 19 | 330 | 4.8 | 17.7 | 0.00 | 0.05 | 0.05 | 45 | 1007.9 |
| 20260510200326 | 19 | 103 | 6.4 | 17.7 | 0.00 | 0.05 | 0.05 | 50 | 1007.9 |
| 20260510195833 | 19 | 113 | 9.7 | 17.7 | 0.00 | 0.08 | 0.05 | 51 | 1008.1 |
| 20260510195315 | 18 | 94 | 4.8 | 17.7 | 0.00 | 0.08 | 0.05 | 52 | 1008.1 |
| 20260510194839 | 18 | 175 | 11.3 | 17.7 | 0.00 | 0.08 | 0.05 | 56 | 1008.1 |
| 20260510194318 | 18 | 144 | 4.8 | 14.5 | 0.00 | 0.08 | 0.05 | 56 | 1008.3 |
| 20260510193823 | 18 | 5 | 6.4 | 14.5 | 0.00 | 0.08 | 0.05 | 56 | 1008.3 |
| 20260510193329 | 17 | 258 | 4.8 | 12.9 | 0.00 | 0.08 | 0.05 | 60 | 1008.3 |
| 20260510192838 | 17 | 219 | 3.2 | 12.9 | 0.00 | 0.08 | 0.05 | 61 | 1008.4 |
| 20260510192332 | 17 | 200 | 3.2 | 12.9 | 0.00 | 0.08 | 0.05 | 64 | 1008.4 |
| 20260510191901 | 17 | 150 | 4.8 | 11.3 | 0.00 | 0.08 | 0.05 | 66 | 1008.4 |
| 20260510191324 | 16 | 213 | 4.8 | 11.3 | 0.00 | 0.08 | 0.05 | 63 | 1008.6 |
| 20260510190832 | 16 | 257 | 4.8 | 11.3 | 0.00 | 0.08 | 0.05 | 62 | 1008.6 |
| 20260510190324 | 16 | 169 | 3.2 | 11.3 | 0.00 | 0.08 | 0.05 | 66 | 1008.6 |
| 20260510185813 | 16 | 147 | 6.4 | 11.3 | 0.00 | 0.10 | 0.05 | 67 | 1008.8 |
| 20260510185325 | 16 | 169 | 4.8 | 11.3 | 0.00 | 0.10 | 0.05 | 65 | 1008.8 |
| 20260510184837 | 16 | 137 | 4.8 | 12.9 | 0.00 | 0.10 | 0.05 | 65 | 1008.8 |
| 20260510184323 | 17 | 209 | 6.4 | 12.9 | 0.00 | 0.10 | 0.05 | 63 | 1008.8 |
| 20260510183832 | 17 | 277 | 4.8 | 17.7 | 0.00 | 0.10 | 0.05 | 71 | 1008.8 |
| 20260510183347 | 16 | 71 | 6.4 | 17.7 | 0.00 | 0.10 | 0.05 | 68 | 1008.8 |
| 20260510182814 | 15 | 182 | 4.8 | 12.9 | 0.00 | 0.10 | 0.05 | 69 | 1008.9 |
| 20260510182342 | 15 | 298 | 4.8 | 12.9 | 0.00 | 0.10 | 0.05 | 69 | 1008.9 |
| 20260510181821 | 15 | 42 | 3.2 | 11.3 | 0.00 | 0.10 | 0.05 | 69 | 1008.9 |
| 20260510181330 | 15 | 130 | 4.8 | 11.3 | 0.00 | 0.10 | 0.05 | 68 | 1008.8 |
| 20260510180841 | 15 | 142 | 4.8 | 12.9 | 0.00 | 0.10 | 0.05 | 66 | 1008.8 |
| 20260510180321 | 15 | 32 | 3.2 | 12.9 | 0.00 | 0.10 | 0.05 | 70 | 1008.8 |
| 20260510175812 | 15 | 117 | 4.8 | 14.5 | 0.00 | 0.13 | 0.05 | 69 | 1008.7 |
| 20260510175321 | 15 | 171 | 4.8 | 12.9 | 0.00 | 0.13 | 0.05 | 66 | 1008.7 |
| 20260510174817 | 15 | 298 | 4.8 | 12.9 | 0.00 | 0.13 | 0.05 | 66 | 1008.7 |
| 20260510174324 | 15 | 247 | 3.2 | 12.9 | 0.00 | 0.13 | 0.05 | 70 | 1008.8 |
| 20260510173833 | 15 | 27 | 1.6 | 12.9 | 0.00 | 0.13 | 0.05 | 70 | 1008.8 |
| 20260510173343 | 15 | 157 | 1.6 | 8.0 | 0.00 | 0.13 | 0.05 | 73 | 1008.8 |
| 20260510172817 | 14 | 150 | 3.2 | 8.0 | 0.00 | 0.13 | 0.05 | 76 | 1008.8 |
| 20260510172356 | 13 | 152 | 4.8 | 8.0 | 0.00 | 0.13 | 0.05 | 78 | 1008.8 |
| 20260510171829 | 13 | 163 | 3.2 | 6.4 | 0.00 | 0.13 | 0.05 | 79 | 1008.8 |
| 20260510171317 | 13 | 117 | 1.6 | 8.0 | 0.00 | 0.13 | 0.05 | 78 | 1008.9 |
| 20260510170832 | 13 | 204 | 3.2 | 8.0 | 0.00 | 0.13 | 0.05 | 80 | 1008.9 |
| 20260510170313 | 13 | 5 | 1.6 | 6.4 | 0.00 | 0.18 | 0.05 | 81 | 1008.9 |
| 20260510165824 | 13 | 173 | 3.2 | 6.4 | 0.00 | 0.18 | 0.05 | 82 | 1009.0 |
| 20260510165319 | 13 | 298 | 3.2 | 6.4 | 0.00 | 0.18 | 0.05 | 82 | 1009.0 |
| 20260510164843 | 13 | 24 | 3.2 | 6.4 | 0.00 | 0.18 | 0.05 | 82 | 1009.0 |
| 20260510164315 | 13 | 52 | 3.2 | 9.7 | 0.00 | 0.18 | 0.05 | 82 | 1008.9 |
| 20260510163819 | 13 | 355 | 1.6 | 9.7 | 0.00 | 0.18 | 0.05 | 81 | 1008.9 |
| 20260510163314 | 13 | 18 | 4.8 | 12.9 | 0.00 | 0.18 | 0.05 | 80 | 1008.9 |
| 20260510162824 | 13 | 298 | 6.4 | 12.9 | 0.00 | 0.18 | 0.05 | 79 | 1008.9 |
| 20260510162332 | 13 | 13 | 6.4 | 12.9 | 0.00 | 0.18 | 0.05 | 83 | 1008.9 |
| 20260510161841 | 13 | 154 | 4.8 | 14.5 | 0.00 | 0.18 | 0.05 | 81 | 1008.9 |
| 20260510161328 | 13 | 144 | 6.4 | 12.9 | 0.00 | 0.18 | 0.05 | 82 | 1009.0 |
| 20260510160900 | 13 | 120 | 4.8 | 12.9 | 0.00 | 0.18 | 0.05 | 83 | 1009.0 |
| 20260510160314 | 13 | 195 | 4.8 | 12.9 | 0.00 | 0.33 | 0.05 | 83 | 1009.0 |
| 20260510155818 | 13 | 36 | 3.2 | 9.7 | 0.00 | 0.33 | 0.05 | 85 | 1008.9 |
| 20260510155332 | 12 | 142 | 3.2 | 11.3 | 0.00 | 0.33 | 0.05 | 85 | 1008.9 |
| 20260510154838 | 12 | 220 | 4.8 | 11.3 | 0.00 | 0.33 | 0.05 | 85 | 1008.9 |
| 20260510154319 | 12 | 142 | 3.2 | 6.4 | 0.00 | 0.33 | 0.05 | 88 | 1008.7 |
| 20260510153828 | 12 | 61 | 1.6 | 12.9 | 0.00 | 0.33 | 0.05 | 87 | 1008.7 |
| 20260510153327 | 12 | 111 | 0.0 | 12.9 | 0.00 | 0.33 | 0.05 | 86 | 1008.7 |
| 20260510152817 | 12 | 109 | 4.8 | 8.0 | 0.00 | 0.33 | 0.05 | 85 | 1008.6 |
| 20260510152326 | 12 | 296 | 3.2 | 8.0 | 0.03 | 0.33 | 0.05 | 86 | 1008.6 |
| 20260510151836 | 12 | 22 | 3.2 | 9.7 | 0.03 | 0.33 | 0.05 | 86 | 1008.6 |
| 20260510151323 | 12 | 342 | 3.2 | 12.9 | 0.03 | 0.33 | 0.05 | 86 | 1008.5 |
| 20260510150833 | 12 | 234 | 6.4 | 12.9 | 0.03 | 0.33 | 0.05 | 87 | 1008.5 |
| 20260510150342 | 12 | 94 | 3.2 | 11.3 | 0.03 | 0.33 | 0.05 | 89 | 1008.5 |
| 20260510145854 | 12 | 118 | 3.2 | 6.4 | 0.03 | 0.38 | 0.05 | 90 | 1008.1 |
| 20260510145323 | 12 | 109 | 1.6 | 4.8 | 0.03 | 0.38 | 0.05 | 89 | 1008.1 |
| 20260510144821 | 12 | 217 | 1.6 | 4.8 | 0.03 | 0.38 | 0.05 | 89 | 1008.1 |
| 20260510144342 | 12 | 146 | 0.0 | 3.2 | 0.03 | 0.38 | 0.05 | 88 | 1007.9 |
| 20260510143815 | 12 | 112 | 1.6 | 8.0 | 0.03 | 0.38 | 0.05 | 89 | 1007.9 |
| 20260510143327 | 12 | 245 | 3.2 | 8.0 | 0.03 | 0.38 | 0.05 | 88 | 1007.9 |
| 20260510142813 | 12 | 127 | 1.6 | 9.7 | 0.03 | 0.38 | 0.05 | 86 | 1008.3 |
| 20260510142313 | 12 | 57 | 1.6 | 9.7 | 0.00 | 0.36 | 0.03 | 85 | 1008.3 |
| 20260510141817 | 12 | 118 | 4.8 | 9.7 | 0.00 | 0.36 | 0.03 | 85 | 1008.3 |
| 20260510141327 | 13 | 246 | 3.2 | 8.0 | 0.00 | 0.36 | 0.03 | 85 | 1007.9 |
| 20260510140838 | 13 | 241 | 3.2 | 8.0 | 0.00 | 0.36 | 0.03 | 84 | 1007.9 |
| 20260510140328 | 13 | 123 | 1.6 | 9.7 | 0.00 | 0.36 | 0.03 | 85 | 1007.9 |
| 20260510135834 | 13 | 210 | 3.2 | 9.7 | 0.00 | 0.36 | 0.03 | 84 | 1007.4 |
| 20260510135313 | 13 | 130 | 4.8 | 8.0 | 0.00 | 0.36 | 0.03 | 83 | 1007.4 |
| 20260510134818 | 13 | 142 | 1.6 | 6.4 | 0.00 | 0.36 | 0.03 | 84 | 1007.4 |
| 20260510134319 | 13 | 134 | 1.6 | 6.4 | 0.00 | 0.36 | 0.03 | 82 | 1007.3 |
| 20260510133814 | 13 | 278 | 1.6 | 9.7 | 0.00 | 0.36 | 0.03 | 82 | 1007.3 |
| 20260510133328 | 13 | 198 | 3.2 | 9.7 | 0.00 | 0.36 | 0.03 | 82 | 1007.3 |
| 20260510132820 | 14 | 242 | 3.2 | 11.3 | 0.00 | 0.36 | 0.03 | 82 | 1007.2 |
| 20260510132330 | 14 | 215 | 3.2 | 11.3 | 0.00 | 0.36 | 0.03 | 81 | 1007.2 |
| 20260510131829 | 14 | 120 | 6.4 | 11.3 | 0.00 | 0.36 | 0.03 | 81 | 1007.2 |
| 20260510131320 | 14 | 229 | 3.2 | 8.0 | 0.00 | 0.36 | 0.03 | 82 | 1007.4 |
| 20260510130828 | 14 | 128 | 1.6 | 8.0 | 0.00 | 0.36 | 0.03 | 85 | 1007.4 |
| 20260510125832 | 13 | 139 | 6.4 | 11.3 | 0.00 | 0.36 | 0.03 | 84 | 1007.4 |
| 20260510125402 | 13 | 202 | 3.2 | 11.3 | 0.00 | 0.36 | 0.03 | 85 | 1007.4 |
| 20260510124815 | 13 | 180 | 3.2 | 8.0 | 0.00 | 0.36 | 0.03 | 86 | 1007.4 |
| 20260510124324 | 13 | 205 | 3.2 | 8.0 | 0.00 | 0.36 | 0.03 | 86 | 1007.3 |
| 20260510123816 | 13 | 316 | 1.6 | 4.8 | 0.00 | 0.36 | 0.03 | 88 | 1007.3 |
| 20260510123311 | 13 | 198 | 1.6 | 11.3 | 0.00 | 0.36 | 0.03 | 89 | 1007.3 |
| 20260510122834 | 12 | 134 | 3.2 | 11.3 | 0.00 | 0.36 | 0.03 | 87 | 1006.8 |
| 20260510122329 | 12 | 138 | 4.8 | 11.3 | 0.00 | 0.36 | 0.03 | 88 | 1006.8 |
| 20260510121818 | 12 | 227 | 1.6 | 6.4 | 0.00 | 0.36 | 0.03 | 90 | 1006.8 |
| 20260510121325 | 12 | 162 | 1.6 | 6.4 | 0.00 | 0.36 | 0.03 | 90 | 1007.1 |
| 20260510120851 | 12 | 200 | 1.6 | 12.9 | 0.00 | 0.36 | 0.03 | 92 | 1007.1 |
| 20260510120316 | 11 | 182 | 3.2 | 12.9 | 0.00 | 0.36 | 0.03 | 94 | 1007.1 |
| 20260510115823 | 11 | 90 | 1.6 | 4.8 | 0.00 | 0.36 | 0.03 | 94 | 1007.3 |
| 20260510115337 | 10 | 128 | 0.0 | 6.4 | 0.00 | 0.36 | 0.03 | 94 | 1007.3 |
| 20260510114816 | 10 | 155 | 1.6 | 6.4 | 0.00 | 0.36 | 0.03 | 95 | 1007.3 |
| 20260510114348 | 10 | 215 | 0.0 | 8.0 | 0.00 | 0.36 | 0.03 | 95 | 1007.0 |
| 20260510113837 | 10 | 126 | 3.2 | 8.0 | 0.00 | 0.36 | 0.03 | 95 | 1007.0 |
| 20260510113330 | 10 | 107 | 0.0 | 3.2 | 0.00 | 0.36 | 0.03 | 95 | 1007.0 |
| 20260510112819 | 10 | 101 | 0.0 | 3.2 | 0.00 | 0.36 | 0.03 | 95 | 1006.8 |
| 20260510112315 | 9 | 101 | 0.0 | 3.2 | 0.00 | 0.36 | 0.03 | 95 | 1006.8 |
| 20260510111827 | 10 | 51 | 0.0 | 1.6 | 0.00 | 0.36 | 0.03 | 95 | 1006.8 |
| 20260510111330 | 10 | 131 | 0.0 | 0.0 | 0.00 | 0.36 | 0.03 | 95 | 1006.5 |
| 20260510110841 | 10 | 131 | 0.0 | 1.6 | 0.00 | 0.36 | 0.03 | 95 | 1006.5 |
| 20260510110330 | 10 | 131 | 0.0 | 1.6 | 0.00 | 0.36 | 0.03 | 95 | 1006.5 |
| 20260510105838 | 10 | 131 | 0.0 | 3.2 | 0.00 | 0.36 | 0.03 | 95 | 1006.3 |
| 20260510105317 | 10 | 164 | 0.0 | 4.8 | 0.00 | 0.36 | 0.03 | 95 | 1006.3 |
| 20260510104850 | 10 | 155 | 1.6 | 4.8 | 0.00 | 0.36 | 0.03 | 95 | 1006.3 |
| 20260510104313 | 10 | 132 | 1.6 | 4.8 | 0.00 | 0.36 | 0.03 | 95 | 1006.0 |
| 20260510103822 | 9 | 116 | 1.6 | 4.8 | 0.00 | 0.36 | 0.03 | 95 | 1006.0 |
| 20260510103319 | 9 | 123 | 3.2 | 3.2 | 0.00 | 0.36 | 0.03 | 95 | 1006.0 |
| 20260510102846 | 9 | 123 | 3.2 | 3.2 | 0.00 | 0.36 | 0.03 | 95 | 1006.3 |
| 20260510102336 | 9 | 123 | 1.6 | 3.2 | 0.00 | 0.36 | 0.03 | 95 | 1006.3 |
| 20260510101815 | 9 | 123 | 0.0 | 0.0 | 0.00 | 0.36 | 0.03 | 95 | 1006.3 |
| 20260510101319 | 9 | 123 | 0.0 | 1.6 | 0.00 | 0.36 | 0.03 | 95 | 1006.0 |
| 20260510100904 | 9 | 123 | 0.0 | 1.6 | 0.00 | 0.36 | 0.03 | 95 | 1006.0 |
| 20260510100316 | 9 | 123 | 0.0 | 3.2 | 0.00 | 0.36 | 0.03 | 94 | 1006.0 |
| 20260510095826 | 9 | 123 | 0.0 | 1.6 | 0.00 | 0.36 | 0.03 | 94 | 1005.4 |
| 20260510095315 | 9 | 123 | 0.0 | 1.6 | 0.00 | 0.36 | 0.03 | 95 | 1005.4 |
| 20260510094844 | 9 | 123 | 0.0 | 0.0 | 0.00 | 0.36 | 0.03 | 95 | 1005.4 |
| 20260510094335 | 9 | 123 | 0.0 | 0.0 | 0.00 | 0.36 | 0.03 | 95 | 1005.4 |
| 20260510093818 | 9 | 123 | 0.0 | 0.0 | 0.00 | 0.36 | 0.03 | 95 | 1005.4 |
| 20260510093323 | 9 | 123 | 0.0 | 0.0 | 0.00 | 0.36 | 0.03 | 95 | 1005.4 |
| 20260510092835 | 9 | 123 | 0.0 | 0.0 | 0.00 | 0.36 | 0.03 | 95 | 1005.3 |
| 20260510092332 | 9 | 123 | 0.0 | 0.0 | 0.00 | 0.36 | 0.03 | 94 | 1005.3 |
| 20260510091814 | 9 | 123 | 0.0 | 3.2 | 0.00 | 0.36 | 0.03 | 93 | 1005.3 |
| 20260510091318 | 9 | 123 | 0.0 | 3.2 | 0.00 | 0.36 | 0.03 | 94 | 1005.0 |
| 20260510090828 | 9 | 123 | 0.0 | 8.0 | 0.00 | 0.36 | 0.03 | 93 | 1005.0 |
| 20260510090341 | 9 | 109 | 1.6 | 8.0 | 0.00 | 0.36 | 0.03 | 93 | 1005.0 |
| 20260510085816 | 10 | 134 | 1.6 | 6.4 | 0.00 | 0.36 | 0.03 | 93 | 1005.3 |
| 20260510085328 | 10 | 115 | 3.2 | 4.8 | 0.00 | 0.36 | 0.03 | 93 | 1005.3 |
| 20260510084838 | 10 | 109 | 3.2 | 3.2 | 0.00 | 0.36 | 0.03 | 93 | 1005.3 |
| 20260510084348 | 10 | 139 | 0.0 | 1.6 | 0.00 | 0.36 | 0.03 | 93 | 1005.0 |
| 20260510083817 | 10 | 139 | 0.0 | 3.2 | 0.00 | 0.36 | 0.03 | 93 | 1005.0 |
| 20260510083344 | 10 | 139 | 1.6 | 3.2 | 0.00 | 0.36 | 0.03 | 93 | 1005.0 |
| 20260510082813 | 10 | 169 | 1.6 | 8.0 | 0.00 | 0.36 | 0.03 | 93 | 1004.7 |
| 20260510082340 | 10 | 222 | 3.2 | 8.0 | 0.00 | 0.36 | 0.03 | 92 | 1004.7 |
| 20260510081821 | 10 | 161 | 3.2 | 16.1 | 0.00 | 0.36 | 0.03 | 92 | 1004.7 |
| 20260510081337 | 10 | 159 | 4.8 | 16.1 | 0.00 | 0.36 | 0.03 | 93 | 1004.7 |
| 20260510080858 | 10 | 161 | 8.0 | 16.1 | 0.00 | 0.36 | 0.03 | 93 | 1004.7 |
| 20260510080330 | 10 | 160 | 6.4 | 20.9 | 0.03 | 0.36 | 0.03 | 93 | 1004.7 |
| 20260510075823 | 10 | 109 | 6.4 | 20.9 | 0.03 | 0.36 | 0.03 | 93 | 1005.5 |
| 20260510075333 | 10 | 163 | 4.8 | 11.3 | 0.03 | 0.36 | 0.03 | 93 | 1005.5 |
| 20260510074838 | 10 | 114 | 4.8 | 9.7 | 0.03 | 0.36 | 0.03 | 93 | 1005.5 |
| 20260510074349 | 10 | 146 | 4.8 | 9.7 | 0.03 | 0.36 | 0.03 | 93 | 1006.1 |
| 20260510073834 | 10 | 132 | 3.2 | 6.4 | 0.03 | 0.36 | 0.03 | 93 | 1006.1 |
| 20260510073314 | 10 | 140 | 1.6 | 8.0 | 0.03 | 0.36 | 0.03 | 93 | 1006.1 |
| 20260510072826 | 10 | 138 | 4.8 | 9.7 | 0.03 | 0.36 | 0.03 | 92 | 1006.2 |
| 20260510072315 | 10 | 158 | 4.8 | 9.7 | 0.03 | 0.36 | 0.03 | 92 | 1006.2 |
| 20260510071814 | 10 | 103 | 1.6 | 4.8 | 0.03 | 0.36 | 0.03 | 92 | 1006.2 |
| 20260510071332 | 10 | 113 | 1.6 | 4.8 | 0.03 | 0.36 | 0.03 | 92 | 1006.1 |
| 20260510070829 | 10 | 166 | 1.6 | 6.4 | 0.00 | 0.33 | 0.00 | 91 | 1006.1 |
| 20260510070347 | 10 | 149 | 1.6 | 8.0 | 0.00 | 0.33 | 0.00 | 91 | 1006.1 |
| 20260510065815 | 11 | 150 | 3.2 | 8.0 | 0.00 | 0.33 | 0.00 | 90 | 1005.9 |
| 20260510065346 | 11 | 121 | 3.2 | 4.8 | 0.00 | 0.33 | 0.00 | 89 | 1005.9 |
| 20260510064826 | 11 | 152 | 0.0 | 3.2 | 0.00 | 0.33 | 0.00 | 89 | 1005.9 |
| 20260510064331 | 11 | 112 | 1.6 | 3.2 | 0.00 | 0.33 | 0.00 | 88 | 1005.6 |
| 20260510063832 | 11 | 136 | 1.6 | 4.8 | 0.00 | 0.33 | 0.00 | 89 | 1005.6 |
| 20260510063321 | 11 | 155 | 1.6 | 4.8 | 0.00 | 0.33 | 0.00 | 89 | 1005.6 |
| 20260510062810 | 11 | 140 | 1.6 | 8.0 | 0.00 | 0.33 | 0.00 | 88 | 1005.7 |
| 20260510062339 | 11 | 139 | 3.2 | 8.0 | 0.00 | 0.33 | 0.00 | 88 | 1005.7 |
| 20260510061821 | 10 | 130 | 3.2 | 8.0 | 0.00 | 0.33 | 0.00 | 88 | 1005.7 |
| 20260510061401 | 10 | 155 | 3.2 | 4.8 | 0.00 | 0.33 | 0.00 | 89 | 1005.4 |
| 20260510060841 | 10 | 155 | 3.2 | 3.2 | 0.00 | 0.33 | 0.00 | 89 | 1005.4 |
| 20260510060403 | 10 | 128 | 1.6 | 3.2 | 0.00 | 0.33 | 0.00 | 89 | 1005.4 |
| 20260510055845 | 10 | 163 | 1.6 | 3.2 | 0.00 | 0.33 | 0.00 | 89 | 1005.3 |
| 20260510055321 | 10 | 162 | 1.6 | 6.4 | 0.00 | 0.33 | 0.00 | 89 | 1005.3 |
| 20260510054813 | 10 | 162 | 3.2 | 4.8 | 0.00 | 0.33 | 0.00 | 89 | 1005.3 |
| 20260510054323 | 10 | 179 | 1.6 | 4.8 | 0.00 | 0.33 | 0.00 | 89 | 1005.3 |
| 20260510053829 | 10 | 151 | 1.6 | 4.8 | 0.00 | 0.33 | 0.00 | 89 | 1005.3 |
| 20260510053329 | 10 | 163 | 1.6 | 4.8 | 0.00 | 0.33 | 0.00 | 89 | 1005.3 |
| 20260510052814 | 10 | 182 | 1.6 | 4.8 | 0.00 | 0.33 | 0.00 | 89 | 1005.4 |
| 20260510052322 | 10 | 131 | 1.6 | 4.8 | 0.00 | 0.33 | 0.00 | 88 | 1005.4 |
| 20260510051830 | 10 | 127 | 1.6 | 3.2 | 0.00 | 0.33 | 0.00 | 88 | 1005.4 |
| 20260510051335 | 10 | 152 | 0.0 | 1.6 | 0.00 | 0.33 | 0.00 | 88 | 1005.5 |
| 20260510050826 | 10 | 152 | 0.0 | 3.2 | 0.00 | 0.33 | 0.00 | 89 | 1005.5 |
| 20260510050326 | 10 | 152 | 1.6 | 6.4 | 0.00 | 0.33 | 0.00 | 89 | 1005.5 |
| 20260510045841 | 10 | 152 | 1.6 | 6.4 | 0.00 | 0.33 | 0.00 | 89 | 1005.3 |
| 20260510045324 | 10 | 157 | 3.2 | 6.4 | 0.00 | 0.33 | 0.00 | 89 | 1005.3 |
| 20260510044835 | 10 | 169 | 3.2 | 11.3 | 0.00 | 0.33 | 0.00 | 89 | 1005.3 |
| 20260510044324 | 10 | 175 | 3.2 | 11.3 | 0.00 | 0.33 | 0.00 | 88 | 1005.3 |
| 20260510043827 | 10 | 141 | 3.2 | 6.4 | 0.00 | 0.33 | 0.00 | 89 | 1005.3 |
| 20260510043351 | 10 | 170 | 1.6 | 6.4 | 0.00 | 0.33 | 0.00 | 88 | 1005.3 |
| 20260510042814 | 10 | 175 | 3.2 | 6.4 | 0.00 | 0.33 | 0.00 | 88 | 1005.5 |
| 20260510042343 | 10 | 156 | 3.2 | 6.4 | 0.00 | 0.33 | 0.00 | 89 | 1005.5 |
| 20260510041830 | 10 | 125 | 1.6 | 4.8 | 0.00 | 0.33 | 0.00 | 89 | 1005.5 |
| 20260510041343 | 10 | 118 | 1.6 | 3.2 | 0.00 | 0.33 | 0.00 | 89 | 1005.7 |
| 20260510040831 | 10 | 118 | 1.6 | 3.2 | 0.00 | 0.33 | 0.00 | 88 | 1005.7 |
| 20260510040319 | 10 | 143 | 3.2 | 11.3 | 0.00 | 0.33 | 0.00 | 88 | 1005.7 |
| 20260510035825 | 10 | 138 | 3.2 | 11.3 | 0.00 | 0.33 | 0.33 | 88 | 1005.3 |
| 20260510035322 | 10 | 121 | 1.6 | 6.4 | 0.00 | 0.33 | 0.33 | 89 | 1005.3 |
| 20260510034814 | 10 | 131 | 1.6 | 6.4 | 0.00 | 0.33 | 0.33 | 89 | 1005.3 |
| 20260510034325 | 10 | 113 | 3.2 | 6.4 | 0.00 | 0.33 | 0.33 | 89 | 1005.3 |
| 20260510033837 | 10 | 155 | 3.2 | 6.4 | 0.00 | 0.33 | 0.33 | 89 | 1005.3 |
| 20260510033342 | 10 | 109 | 3.2 | 8.0 | 0.00 | 0.33 | 0.33 | 89 | 1005.3 |
| 20260510032847 | 10 | 142 | 3.2 | 8.0 | 0.00 | 0.33 | 0.33 | 89 | 1005.5 |
| 20260510032336 | 10 | 142 | 3.2 | 8.0 | 0.00 | 0.33 | 0.33 | 89 | 1005.5 |
| 20260510031812 | 10 | 132 | 1.6 | 9.7 | 0.00 | 0.33 | 0.33 | 90 | 1005.5 |
| 20260510031323 | 10 | 155 | 1.6 | 4.8 | 0.00 | 0.33 | 0.33 | 89 | 1005.6 |
| 20260510030832 | 10 | 111 | 1.6 | 4.8 | 0.00 | 0.33 | 0.33 | 89 | 1005.6 |
| 20260510030314 | 10 | 124 | 0.0 | 3.2 | 0.00 | 0.33 | 0.33 | 90 | 1005.6 |
| 20260510025821 | 10 | 124 | 1.6 | 3.2 | 0.00 | 0.33 | 0.33 | 90 | 1005.6 |
| 20260510025313 | 10 | 116 | 1.6 | 3.2 | 0.00 | 0.33 | 0.33 | 90 | 1005.6 |
| 20260510024845 | 10 | 171 | 1.6 | 3.2 | 0.00 | 0.33 | 0.33 | 90 | 1005.6 |
| 20260510024312 | 10 | 193 | 0.0 | 3.2 | 0.00 | 0.33 | 0.33 | 89 | 1005.5 |
| 20260510023839 | 10 | 128 | 0.0 | 4.8 | 0.00 | 0.33 | 0.33 | 89 | 1005.5 |
| 20260510023315 | 10 | 128 | 1.6 | 4.8 | 0.00 | 0.33 | 0.33 | 89 | 1005.5 |
| 20260510022826 | 10 | 105 | 3.2 | 4.8 | 0.00 | 0.33 | 0.33 | 89 | 1005.7 |
| 20260510022318 | 10 | 129 | 1.6 | 4.8 | 0.00 | 0.33 | 0.33 | 89 | 1005.7 |
| 20260510021811 | 10 | 218 | 0.0 | 8.0 | 0.00 | 0.33 | 0.33 | 88 | 1005.7 |
| 20260510021339 | 10 | 164 | 3.2 | 8.0 | 0.00 | 0.33 | 0.33 | 87 | 1005.3 |
| 20260510020815 | 10 | 124 | 3.2 | 6.4 | 0.00 | 0.33 | 0.33 | 88 | 1005.3 |
| 20260510020331 | 10 | 225 | 1.6 | 9.7 | 0.00 | 0.33 | 0.33 | 87 | 1005.3 |
| 20260510015841 | 10 | 120 | 3.2 | 12.9 | 0.00 | 0.33 | 0.33 | 87 | 1005.3 |
| 20260510015346 | 10 | 146 | 3.2 | 12.9 | 0.00 | 0.33 | 0.33 | 87 | 1005.3 |
| 20260510014838 | 10 | 144 | 1.6 | 11.3 | 0.00 | 0.33 | 0.33 | 87 | 1005.3 |
| 20260510014314 | 10 | 132 | 4.8 | 17.7 | 0.00 | 0.33 | 0.33 | 86 | 1005.7 |
| 20260510013841 | 10 | 115 | 4.8 | 17.7 | 0.00 | 0.33 | 0.33 | 86 | 1005.7 |
| 20260510013402 | 10 | 346 | 3.2 | 12.9 | 0.00 | 0.33 | 0.33 | 86 | 1005.7 |
| 20260510012818 | 10 | 77 | 3.2 | 12.9 | 0.00 | 0.33 | 0.33 | 86 | 1005.7 |
| 20260510012312 | 10 | 336 | 3.2 | 8.0 | 0.00 | 0.33 | 0.33 | 87 | 1005.7 |
| 20260510011822 | 10 | 76 | 3.2 | 8.0 | 0.00 | 0.33 | 0.33 | 87 | 1005.7 |
| 20260510011329 | 10 | 80 | 1.6 | 8.0 | 0.00 | 0.33 | 0.33 | 88 | 1005.7 |
| 20260510010838 | 10 | 145 | 3.2 | 11.3 | 0.00 | 0.33 | 0.33 | 87 | 1005.7 |
| 20260510010341 | 10 | 102 | 3.2 | 11.3 | 0.00 | 0.33 | 0.33 | 87 | 1005.7 |
| 20260510005838 | 10 | 120 | 1.6 | 9.7 | 0.00 | 0.33 | 0.33 | 87 | 1005.7 |
| 20260510005342 | 10 | 94 | 1.6 | 9.7 | 0.00 | 0.33 | 0.33 | 87 | 1005.7 |
| 20260510004825 | 10 | 179 | 3.2 | 11.3 | 0.00 | 0.33 | 0.33 | 86 | 1005.7 |
| 20260510004333 | 10 | 179 | 3.2 | 11.3 | 0.00 | 0.33 | 0.33 | 86 | 1005.3 |
| 20260510003847 | 10 | 96 | 3.2 | 11.3 | 0.00 | 0.33 | 0.33 | 87 | 1005.3 |
| 20260510003333 | 10 | 344 | 4.8 | 11.3 | 0.00 | 0.33 | 0.33 | 87 | 1005.3 |
| 20260510002824 | 10 | 142 | 3.2 | 12.9 | 0.00 | 0.33 | 0.33 | 87 | 1005.2 |
| 20260510002318 | 10 | 46 | 3.2 | 12.9 | 0.00 | 0.33 | 0.33 | 87 | 1005.2 |
| 20260510001823 | 11 | 21 | 1.6 | 12.9 | 0.00 | 0.33 | 0.33 | 86 | 1005.2 |
| 20260510001315 | 11 | 103 | 4.8 | 12.9 | 0.00 | 0.33 | 0.33 | 87 | 1005.3 |
| 20260510000829 | 11 | 108 | 3.2 | 11.3 | 0.00 | 0.33 | 0.33 | 87 | 1005.3 |
| 20260510000343 | 11 | 130 | 4.8 | 8.0 | 0.00 | 0.33 | 0.33 | 86 | 1005.3 |
| 20260509235817 | 11 | 48 | 3.2 | 9.7 | 0.00 | 0.33 | 0.33 | 87 | 1005.1 |
| 20260509235329 | 11 | 134 | 3.2 | 9.7 | 0.00 | 0.33 | 0.33 | 86 | 1005.1 |
| 20260509234838 | 11 | 140 | 3.2 | 9.7 | 0.00 | 0.33 | 0.33 | 87 | 1005.1 |
| 20260509234322 | 11 | 133 | 3.2 | 8.0 | 0.00 | 0.33 | 0.33 | 86 | 1004.8 |
| 20260509233835 | 11 | 101 | 4.8 | 8.0 | 0.00 | 0.33 | 0.33 | 87 | 1004.8 |
| 20260509233339 | 11 | 99 | 1.6 | 6.4 | 0.00 | 0.33 | 0.33 | 87 | 1004.8 |
| 20260509232828 | 11 | 308 | 3.2 | 9.7 | 0.00 | 0.33 | 0.33 | 87 | 1004.7 |
| 20260509232320 | 11 | 69 | 3.2 | 9.7 | 0.00 | 0.33 | 0.33 | 88 | 1004.7 |
| 20260509231821 | 11 | 69 | 3.2 | 11.3 | 0.00 | 0.33 | 0.33 | 88 | 1004.7 |
| 20260509231339 | 11 | 136 | 1.6 | 11.3 | 0.00 | 0.33 | 0.33 | 88 | 1004.7 |
| 20260509230848 | 11 | 130 | 3.2 | 9.7 | 0.00 | 0.33 | 0.33 | 86 | 1004.7 |
| 20260509230331 | 11 | 190 | 3.2 | 9.7 | 0.00 | 0.33 | 0.33 | 86 | 1004.7 |
| 20260509225820 | 11 | 138 | 4.8 | 9.7 | 0.00 | 0.33 | 0.33 | 86 | 1004.7 |